星链-5440 (STARLINK-5440 )

导读 | 豆包AI

STARLINK-5440是美国SpaceX公司星链(Starlink)星座的成员卫星,于2022年12月17日发射升空,属于星链一代星座组网卫星。星链项目旨在构建全球低轨卫星互联网星座,为全球提供宽带互联网接入服务。该卫星运行在近地轨道,通过星载相控阵天线实现高速通信,支持地面用户终端接入,填补了地面网络覆盖盲区,目前已随整个星座持续提供全球卫星互联网服务。

基本信息
目录编号:
54785
目录名称:
STARLINK-5440
国际标识:
2022-175AD
轨道中心:
EARTH
卫星名称:
星链-5440
卫星全名:
星链-5440 (STARLINK-5440 )
卫星状态:
在轨 (已飞行1184 天)
发射日期:
2022-12-17 UTC
国别 :
美国 (US)
星等 :
--
轨道信息
数据来源 国际轨道数据
星历时间: 2026-03-15T06:19:25+0800
14小时前
查看轨道信息
半长轴: 6917.921km
偏心率: 0.000129
轨道倾角: 53.218°
近地点辐角 90.333°
升交点赤经 325.466°
平近点角 269.781°
近地点: 538.891km
远地点: 540.677km
周期: 95.438分钟
每日圈数: 15.088269
详细信息
固有亮度:
5
最大亮度:
2.5
卫星平台:
Starlink v1.5
覆盖范围:
全球
运营商:
太空探索技术公司
运营商所在国:
美国
制造商(研发单位):
太空探索技术公司
制造商所在国:
美国
使用方式:
暂无
卫星简介
星链(Starlink)计划是由太空探索技术公司(SpaceX)提出的一个巨型低轨卫星互联网星座项目,计划在2019年至2024年间在太空搭建由约1.2万颗卫星组成的“星链”网络,其中1584颗将部署在地球上空550千米处的近地轨道,并从2020年开始工作。该卫星仍在工作。
2D轨道图
3D轨道图
轨道高度分析图
轨道倾角分析图
轨道综合分析图
查看轨道综合分析图